Flag for Argentina Weather past 2 weeks in Salta, Salta, Argentina

Now
66 °F

Clear.


Feels Like: 66 °F
Forecast: 59 / 68 °F
Wind: 1 mph from Northwest

Location: Salta Aerodrome

Current Time: Oct 1, 2014 at 10:31:09 PM

Latest Report: Oct 1, 2014 at 10:00 PM


Visibility: 10 mi

Pressure: 30.24 "Hg

Humidity: 60%

Dew point: 52 °F

Location of SaltaLocation

Historic Weather in Salta — Graph

°F

Salta temperature yesterday

Maximum temperature yesterday: 84 °F (at 3:00 PM)
Minimum temperature yesterday: 55 °F (at 5:00 AM)
Average temperature yesterday: 70 °F

Past Weeks' High & Low Weather Summary

 TemperatureHumidityPressure
High90 °F (Sep 25, 4:00 PM)94% (Sep 20, 10:00 PM)30.30 "Hg (Sep 20, 10:00 PM)
Low45 °F (Sep 17, 7:00 AM)5% (Sep 25, 4:00 PM)29.71 "Hg (Sep 28, 4:00 PM)
Average65 °F54%30.02 "Hg
* Reported Sep 16 9:00 PM — Oct 1 9:00 PM, Salta, Weather by CustomWeather, © 2014

Note: Actual official high and low records may vary slightly from our data, if they occured in-between our weather recording intervals... More about our weather records

Advertising

Salta weather history for previous 24 hours

 ConditionsComfort  
Time TempWeatherWind HumidityBarometerVisibility
9:00 PM
Oct 1
66 °FClear.2 mph56%30.21 "Hg10 mi
8:00 PM68 °FClear.6 mph53%30.21 "Hg10 mi
7:00 PM70 °FClear.7 mph46%30.18 "Hg10 mi
6:00 PM70 °FSunny.5 mph46%30.15 "Hg10 mi
5:00 PM70 °FSunny.2 mph46%30.15 "Hg10 mi
4:00 PM70 °FSunny.5 mph50%30.18 "Hg10 mi
3:00 PM68 °FOvercast.3 mph49%30.18 "HgN/A
2:00 PM68 °FPartly sunny.7 mph53%30.24 "HgN/A
1:00 PM68 °FSunny.7 mph49%30.27 "Hg10 mi
12:00 PM64 °FMore clouds than sun.6 mph49%30.30 "HgN/A
11:00 AM64 °FBroken clouds.5 mph52%30.30 "HgN/A
10:00 AM63 °FBroken clouds.6 mph59%30.30 "HgN/A
9:00 AM63 °FBroken clouds.5 mph59%30.30 "HgN/A
8:00 AM61 °FBroken clouds.7 mph63%30.24 "HgN/A
7:00 AM63 °FMore clouds than sun.10 mph64%30.21 "HgN/A
6:00 AM63 °FOvercast.16 mph64%30.18 "HgN/A
5:00 AM63 °FMostly cloudy.14 mph68%30.15 "HgN/A
4:00 AM63 °FMostly cloudy.2 mph77%30.15 "HgN/A
3:00 AM64 °FMostly cloudy.9 mph78%30.15 "HgN/A
2:00 AM63 °FMostly cloudy.21 mph88%30.15 "HgN/A
1:00 AM64 °FMostly cloudy.8 mph88%30.15 "HgN/A
12:00 AM66 °FLight rain. Mostly cloudy.9 mph83%30.12 "Hg5 mi
11:00 PM
Sep 30
73 °FPassing clouds.12 mph61%30.12 "HgN/A
10:00 PM73 °FPassing clouds.8 mph61%30.09 "HgN/A
Weather by CustomWeather, © 2014

See weather overviewHow to use our weather pages